GCEND PHMK-PHNL

Flight info

Callsign GCEND
Flight time 0h 31m
Altitude 3700
Route PHMK / VRMIP / GRITL / PHNL
Aircraft C172/L-VGDW/C

Departure

Time 2026-04-20 08:04
Airport Molokai Airport (PHMK)

Arrival

Time 2026-04-20 08:35
Airport Daniel K. Inouye International Airport (PHNL)
Time Latitude Longitude Altitude Speed Heading
2026-04-20 07:50 21.15537 -157.09285 459 ft 0 kts 60°
2026-04-20 08:00 21.15537 -157.09283 459 ft 0 kts 75°
2026-04-20 08:00 21.15507 -157.09262 458 ft 6 kts 192°
2026-04-20 08:00 21.15441 -157.09361 455 ft 29 kts 239°
2026-04-20 08:00 21.15309 -157.09611 448 ft 45 kts 239°
2026-04-20 08:01 21.15145 -157.09921 440 ft 46 kts 243°
2026-04-20 08:01 21.15034 -157.10124 435 ft 13 kts 225°
2026-04-20 08:01 21.15022 -157.10129 435 ft 0 kts 152°
2026-04-20 08:02 21.15018 -157.10126 435 ft 5 kts 149°
2026-04-20 08:02 21.14984 -157.10072 433 ft 6 kts 65°
2026-04-20 08:03 21.14986 -157.10068 433 ft 0 kts 60°
2026-04-20 08:03 21.15027 -157.09993 435 ft 38 kts 61°
2026-04-20 08:03 21.15241 -157.09589 486 ft 75 kts 59°
2026-04-20 08:03 21.15493 -157.09132 766 ft 66 kts 54°
2026-04-20 08:04 21.15757 -157.08699 982 ft 72 kts 53°
2026-04-20 08:04 21.16046 -157.08215 1168 ft 81 kts 47°
2026-04-20 08:04 21.16567 -157.07983 1372 ft 85 kts 355°
2026-04-20 08:04 21.17166 -157.08116 1559 ft 90 kts 342°
2026-04-20 08:05 21.17735 -157.08426 1750 ft 93 kts 312°
2026-04-20 08:05 21.18110 -157.08989 1932 ft 95 kts 293°
2026-04-20 08:05 21.18344 -157.09665 2114 ft 96 kts 283°
2026-04-20 08:05 21.18509 -157.10364 2289 ft 97 kts 282°
2026-04-20 08:06 21.18670 -157.11075 2464 ft 98 kts 282°
2026-04-20 08:06 21.18834 -157.11797 2640 ft 98 kts 282°
2026-04-20 08:06 21.18996 -157.12506 2812 ft 98 kts 282°
2026-04-20 08:06 21.19161 -157.13229 2988 ft 98 kts 282°
2026-04-20 08:07 21.19325 -157.13945 3162 ft 98 kts 282°
2026-04-20 08:07 21.19497 -157.14665 3337 ft 98 kts 283°
2026-04-20 08:07 21.19672 -157.15373 3510 ft 98 kts 283°
2026-04-20 08:07 21.19847 -157.16077 3683 ft 98 kts 283°
2026-04-20 08:08 21.20031 -157.16817 3724 ft 108 kts 284°
2026-04-20 08:08 21.20232 -157.17622 3713 ft 115 kts 284°
2026-04-20 08:08 21.20445 -157.18474 3710 ft 117 kts 284°
2026-04-20 08:08 21.20659 -157.19324 3709 ft 118 kts 284°
2026-04-20 08:09 21.20874 -157.20181 3708 ft 119 kts 284°
2026-04-20 08:09 21.21091 -157.21043 3708 ft 119 kts 284°
2026-04-20 08:09 21.21307 -157.21898 3708 ft 119 kts 284°
2026-04-20 08:09 21.21536 -157.22755 3708 ft 119 kts 285°
2026-04-20 08:10 21.21770 -157.23607 3708 ft 119 kts 286°
2026-04-20 08:10 21.22013 -157.24449 3708 ft 119 kts 286°
2026-04-20 08:10 21.22259 -157.25297 3708 ft 119 kts 286°
2026-04-20 08:10 21.22507 -157.26149 3708 ft 119 kts 287°
2026-04-20 08:11 21.22753 -157.26994 3708 ft 119 kts 287°
2026-04-20 08:11 21.22999 -157.27841 3708 ft 119 kts 287°
2026-04-20 08:11 21.23248 -157.28691 3708 ft 119 kts 287°
2026-04-20 08:11 21.23497 -157.29541 3708 ft 119 kts 287°
2026-04-20 08:12 21.23748 -157.30397 3708 ft 119 kts 287°
2026-04-20 08:12 21.23993 -157.31235 3708 ft 119 kts 287°
2026-04-20 08:12 21.24244 -157.32088 3708 ft 119 kts 287°
2026-04-20 08:12 21.24495 -157.32939 3708 ft 119 kts 287°
2026-04-20 08:13 21.24745 -157.33786 3708 ft 119 kts 287°
2026-04-20 08:13 21.24996 -157.34634 3708 ft 119 kts 287°
2026-04-20 08:13 21.25245 -157.35478 3709 ft 119 kts 286°
2026-04-20 08:13 21.25482 -157.36325 3708 ft 119 kts 286°
2026-04-20 08:14 21.25720 -157.37177 3708 ft 119 kts 286°
2026-04-20 08:14 21.25960 -157.38032 3708 ft 119 kts 286°
2026-04-20 08:14 21.26199 -157.38888 3708 ft 119 kts 286°
2026-04-20 08:14 21.26438 -157.39737 3708 ft 119 kts 286°
2026-04-20 08:15 21.26675 -157.40582 3708 ft 119 kts 286°
2026-04-20 08:15 21.26917 -157.41438 3708 ft 119 kts 286°
2026-04-20 08:15 21.27154 -157.42281 3708 ft 119 kts 286°
2026-04-20 08:15 21.27395 -157.43131 3708 ft 119 kts 286°
2026-04-20 08:16 21.27636 -157.43983 3708 ft 119 kts 286°
2026-04-20 08:16 21.27877 -157.44835 3708 ft 119 kts 286°
2026-04-20 08:16 21.28119 -157.45685 3708 ft 119 kts 286°
2026-04-20 08:16 21.28360 -157.46530 3708 ft 119 kts 286°
2026-04-20 08:17 21.28603 -157.47382 3708 ft 119 kts 286°
2026-04-20 08:17 21.28846 -157.48235 3708 ft 119 kts 286°
2026-04-20 08:17 21.29089 -157.49086 3708 ft 119 kts 286°
2026-04-20 08:17 21.29333 -157.49934 3708 ft 119 kts 286°
2026-04-20 08:18 21.29578 -157.50786 3708 ft 119 kts 286°
2026-04-20 08:18 21.29820 -157.51628 3708 ft 119 kts 286°
2026-04-20 08:18 21.30067 -157.52486 3708 ft 119 kts 286°
2026-04-20 08:18 21.30314 -157.53339 3708 ft 119 kts 287°
2026-04-20 08:19 21.30555 -157.54176 3708 ft 119 kts 287°
2026-04-20 08:19 21.30803 -157.55031 3708 ft 119 kts 287°
2026-04-20 08:19 21.31049 -157.55876 3708 ft 119 kts 287°
2026-04-20 08:19 21.31298 -157.56734 3708 ft 119 kts 287°
2026-04-20 08:20 21.31544 -157.57579 3709 ft 119 kts 287°
2026-04-20 08:20 21.31790 -157.58424 3708 ft 119 kts 287°
2026-04-20 08:20 21.32040 -157.59277 3708 ft 119 kts 287°
2026-04-20 08:20 21.32289 -157.60127 3708 ft 119 kts 287°
2026-04-20 08:21 21.32540 -157.60985 3708 ft 119 kts 287°
2026-04-20 08:21 21.32788 -157.61829 3708 ft 119 kts 287°
2026-04-20 08:21 21.33032 -157.62683 3708 ft 119 kts 282°
2026-04-20 08:21 21.33061 -157.63559 3710 ft 118 kts 268°
2026-04-20 08:22 21.33127 -157.64456 3708 ft 119 kts 276°
2026-04-20 08:22 21.33208 -157.65337 3709 ft 119 kts 275°
2026-04-20 08:22 21.33288 -157.66223 3708 ft 119 kts 275°
2026-04-20 08:22 21.33369 -157.67111 3708 ft 119 kts 275°
2026-04-20 08:23 21.33450 -157.68007 3708 ft 119 kts 275°
2026-04-20 08:23 21.33531 -157.68890 3708 ft 119 kts 275°
2026-04-20 08:23 21.33614 -157.69783 3708 ft 119 kts 275°
2026-04-20 08:23 21.33695 -157.70660 3708 ft 119 kts 275°
2026-04-20 08:24 21.33778 -157.71555 3708 ft 119 kts 275°
2026-04-20 08:24 21.33859 -157.72429 3708 ft 119 kts 275°
2026-04-20 08:24 21.33943 -157.73318 3708 ft 119 kts 275°
2026-04-20 08:24 21.34026 -157.74199 3708 ft 119 kts 275°
2026-04-20 08:25 21.34111 -157.75093 3708 ft 119 kts 275°
2026-04-20 08:25 21.34194 -157.75967 3708 ft 119 kts 275°
2026-04-20 08:25 21.34279 -157.76855 3708 ft 119 kts 275°
2026-04-20 08:25 21.34364 -157.77737 3708 ft 119 kts 275°
2026-04-20 08:26 21.34450 -157.78628 3708 ft 119 kts 275°
2026-04-20 08:26 21.34535 -157.79506 3707 ft 119 kts 275°
2026-04-20 08:26 21.34622 -157.80383 3654 ft 113 kts 275°
2026-04-20 08:26 21.34704 -157.81207 3598 ft 109 kts 275°
2026-04-20 08:27 21.34783 -157.82002 3545 ft 106 kts 275°
2026-04-20 08:27 21.34863 -157.82797 3493 ft 105 kts 275°
2026-04-20 08:27 21.34907 -157.83578 3414 ft 105 kts 271°
2026-04-20 08:27 21.34924 -157.84370 3262 ft 105 kts 271°
2026-04-20 08:28 21.34940 -157.85159 3111 ft 105 kts 271°
2026-04-20 08:28 21.34956 -157.85953 2960 ft 105 kts 271°
2026-04-20 08:28 21.34972 -157.86740 2809 ft 105 kts 271°
2026-04-20 08:28 21.34988 -157.87524 2659 ft 105 kts 271°
2026-04-20 08:29 21.35005 -157.88312 2509 ft 105 kts 271°
2026-04-20 08:29 21.35022 -157.89105 2357 ft 105 kts 271°
2026-04-20 08:29 21.35041 -157.89900 2126 ft 107 kts 271°
2026-04-20 08:29 21.35059 -157.90700 1878 ft 108 kts 271°
2026-04-20 08:30 21.35079 -157.91509 1627 ft 108 kts 271°
2026-04-20 08:30 21.35099 -157.92325 1374 ft 108 kts 271°
2026-04-20 08:30 21.35119 -157.93135 1122 ft 108 kts 271°
2026-04-20 08:30 21.35139 -157.93945 951 ft 100 kts 271°
2026-04-20 08:31 21.35155 -157.94627 988 ft 85 kts 270°
2026-04-20 08:31 21.35170 -157.95245 1032 ft 79 kts 269°
2026-04-20 08:31 21.35186 -157.95874 1009 ft 84 kts 270°
2026-04-20 08:31 21.35062 -157.96468 1002 ft 80 kts 233°
2026-04-20 08:32 21.34607 -157.96808 1000 ft 76 kts 203°
2026-04-20 08:32 21.34115 -157.96995 987 ft 74 kts 190°
2026-04-20 08:32 21.33582 -157.97051 941 ft 75 kts 179°
2026-04-20 08:32 21.33064 -157.97000 924 ft 69 kts 169°
2026-04-20 08:33 21.32578 -157.96945 870 ft 69 kts 176°
2026-04-20 08:33 21.31581 -157.96980 741 ft 71 kts 176°
2026-04-20 08:33 21.31161 -157.96661 615 ft 79 kts 135°
2026-04-20 08:34 21.30827 -157.96233 547 ft 75 kts 118°
2026-04-20 08:34 21.30669 -157.95683 375 ft 81 kts 95°
2026-04-20 08:34 21.30678 -157.95068 209 ft 80 kts 86°
2026-04-20 08:34 21.30686 -157.94475 93 ft 78 kts 89°
2026-04-20 08:35 21.30687 -157.93896 11 ft 72 kts 89°
2026-04-20 08:35 21.30678 -157.93475 4 ft 42 kts 89°
2026-04-20 08:35 21.30679 -157.93198 4 ft 41 kts 90°
2026-04-20 08:35 21.30677 -157.92825 4 ft 51 kts 89°
2026-04-20 08:36 21.30678 -157.92456 4 ft 42 kts 90°
2026-04-20 08:36 21.30707 -157.92194 4 ft 28 kts 74°
2026-04-20 08:36 21.30781 -157.92027 4 ft 22 kts 56°
2026-04-20 08:36 21.30802 -157.91986 4 ft 0 kts 69°
2026-04-20 08:37 21.30810 -157.91969 4 ft 11 kts 62°
2026-04-20 08:37 21.30882 -157.91830 4 ft 26 kts 59°
2026-04-20 08:37 21.30971 -157.91878 4 ft 19 kts 268°
2026-04-20 08:37 21.30965 -157.92033 5 ft 23 kts 270°
2026-04-20 08:38 21.30971 -157.92232 6 ft 27 kts 277°
2026-04-20 08:38 21.31074 -157.92407 9 ft 28 kts 321°
2026-04-20 08:38 21.31220 -157.92552 12 ft 26 kts 319°
2026-04-20 08:38 21.31308 -157.92511 13 ft 13 kts 148°
2026-04-20 08:39 21.31285 -157.92421 13 ft 19 kts 56°
2026-04-20 08:39 21.31365 -157.92270 13 ft 23 kts 105°
2026-04-20 08:39 21.31373 -157.92210 13 ft 2 kts 342°
2026-04-20 08:39 21.31375 -157.92212 13 ft 0 kts 321°